| time (UTC) | temp C | wind direction | speed KPH | gust KPH | rain 1hr cm | rain 24hr cm | rain mn cm | humidity % | barometer mb |
| 20260505182007 | 15 | 45 | 1.6 | 1.6 | 0.00 | 0.00 | 0.00 | 93 | 1016.9 |
| 20260505180007 | 15 | 45 | 8.0 | 8.0 | 0.00 | 0.00 | 0.00 | 94 | 1016.9 |
| 20260505165006 | 14 | 60 | 3.2 | 9.7 | 0.00 | 0.00 | 0.00 | 94 | 1016.5 |
| 20260505164507 | 14 | 180 | 8.0 | 8.0 | 0.00 | 0.00 | 0.00 | 94 | 1016.6 |
| 20260505164007 | 14 | 0 | 6.4 | 8.0 | 0.00 | 0.00 | 0.00 | 95 | 1016.4 |
| 20260505163508 | 14 | 135 | 4.8 | 6.4 | 0.00 | 0.00 | 0.00 | 95 | 1016.3 |
| 20260505162507 | 14 | 315 | 4.8 | 4.8 | 0.00 | 0.00 | 0.00 | 95 | 1016.3 |
| 20260505162007 | 14 | 158 | 6.4 | 8.0 | 0.00 | 0.00 | 0.00 | 96 | 1016.3 |
| 20260505161507 | 13 | 90 | 4.8 | 8.0 | 0.00 | 0.00 | 0.00 | 96 | 1016.3 |
| 20260505161007 | 13 | 135 | 3.2 | 11.3 | 0.00 | 0.00 | 0.00 | 96 | 1016.3 |
| 20260505160507 | 13 | 158 | 3.2 | 8.0 | 0.00 | 0.00 | 0.00 | 97 | 1016.3 |
| 20260505153007 | 13 | 169 | 3.2 | 6.4 | 0.00 | 0.00 | 0.00 | 97 | 1016.3 |
| 20260505152507 | 12 | 135 | 4.8 | 6.4 | 0.00 | 0.00 | 0.00 | 97 | 1016.3 |
| 20260505152007 | 12 | 120 | 8.0 | 8.0 | 0.00 | 0.00 | 0.00 | 97 | 1016.3 |
| 20260505151506 | 12 | 150 | 9.7 | 11.3 | 0.00 | 0.00 | 0.00 | 97 | 1016.3 |
| 20260505151007 | 12 | 135 | 12.9 | 12.9 | 0.00 | 0.00 | 0.00 | 97 | 1016.3 |
| 20260505150508 | 12 | 248 | 6.4 | 8.0 | 0.00 | 0.00 | 0.00 | 97 | 1016.3 |
| 20260505140508 | 12 | 108 | 8.0 | 9.7 | 0.00 | 0.00 | 0.00 | 97 | 1015.6 |
| 20260505125007 | 12 | 135 | 11.3 | 11.3 | 0.00 | 0.00 | 0.00 | 97 | 1015.2 |
| 20260505124507 | 12 | 144 | 6.4 | 8.0 | 0.00 | 0.00 | 0.00 | 97 | 1015.2 |
| 20260505124007 | 12 | 162 | 9.7 | 11.3 | 0.00 | 0.00 | 0.00 | 97 | 1015.2 |
| 20260505123507 | 12 | 63 | 1.6 | 6.4 | 0.00 | 0.00 | 0.00 | 97 | 1015.2 |
| 20260505123007 | 12 | 117 | 6.4 | 11.3 | 0.00 | 0.00 | 0.00 | 97 | 1015.2 |
| 20260505122507 | 12 | 135 | 9.7 | 12.9 | 0.00 | 0.00 | 0.00 | 97 | 1015.2 |
| 20260505122007 | 12 | 180 | 3.2 | 8.0 | 0.00 | 0.00 | 0.00 | 97 | 1015.2 |
| 20260505121507 | 12 | 180 | 1.6 | 6.4 | 0.00 | 0.00 | 0.00 | 97 | 1015.2 |
| 20260505121007 | 12 | 135 | 4.8 | 9.7 | 0.00 | 0.00 | 0.00 | 97 | 1015.2 |
| 20260505120507 | 12 | 135 | 4.8 | 8.0 | 0.00 | 0.00 | 0.00 | 97 | 1015.2 |
| 20260505120006 | 12 | 135 | 1.6 | 8.0 | 0.00 | 0.00 | 0.00 | 97 | 1015.2 |
| 20260505115508 | 12 | 171 | 4.8 | 8.0 | 0.00 | 0.00 | 0.00 | 97 | 1015.0 |
| 20260505115006 | 12 | 180 | 1.6 | 8.0 | 0.00 | 0.00 | 0.00 | 97 | 1015.2 |
| 20260505114507 | 12 | 126 | 8.0 | 9.7 | 0.00 | 0.00 | 0.00 | 97 | 1015.2 |
| 20260505114007 | 12 | 45 | 3.2 | 11.3 | 0.00 | 0.00 | 0.00 | 97 | 1015.1 |
| 20260505113507 | 12 | 135 | 6.4 | 11.3 | 0.00 | 0.00 | 0.00 | 97 | 1015.0 |
| 20260505113007 | 12 | 171 | 8.0 | 11.3 | 0.00 | 0.00 | 0.00 | 97 | 1014.9 |
| 20260505112507 | 12 | 171 | 6.4 | 9.7 | 0.00 | 0.00 | 0.00 | 97 | 1015.1 |
| 20260505112007 | 12 | 135 | 6.4 | 11.3 | 0.00 | 0.00 | 0.00 | 97 | 1015.2 |
| 20260505111507 | 12 | 135 | 9.7 | 11.3 | 0.00 | 0.00 | 0.00 | 97 | 1015.0 |
| 20260505111007 | 12 | 162 | 4.8 | 9.7 | 0.00 | 0.00 | 0.00 | 97 | 1014.9 |
| 20260505110508 | 12 | 180 | 1.6 | 6.4 | 0.00 | 0.00 | 0.00 | 97 | 1014.9 |
| 20260505102007 | 12 | 135 | 6.4 | 9.7 | 0.00 | 0.00 | 0.00 | 96 | 1014.6 |
| 20260505101508 | 12 | 180 | 9.7 | 12.9 | 0.00 | 0.00 | 0.00 | 96 | 1014.6 |
| 20260505101006 | 12 | 135 | 4.8 | 9.7 | 0.00 | 0.00 | 0.00 | 96 | 1014.6 |
| 20260505100507 | 12 | 108 | 6.4 | 9.7 | 0.00 | 0.00 | 0.00 | 96 | 1014.6 |
| 20260505100007 | 12 | 162 | 8.0 | 11.3 | 0.00 | 0.00 | 0.00 | 96 | 1014.6 |
| 20260505095507 | 12 | 162 | 1.6 | 4.8 | 0.00 | 0.00 | 0.00 | 96 | 1014.6 |
| 20260505095007 | 12 | 153 | 0.0 | 8.0 | 0.00 | 0.00 | 0.00 | 96 | 1014.6 |
| 20260505094507 | 12 | 171 | 6.4 | 8.0 | 0.00 | 0.00 | 0.00 | 96 | 1014.6 |
| 20260505094006 | 12 | 180 | 4.8 | 9.7 | 0.00 | 0.00 | 0.00 | 95 | 1014.6 |
| 20260505093507 | 13 | 180 | 9.7 | 9.7 | 0.00 | 0.00 | 0.00 | 95 | 1014.4 |
| 20260505093007 | 13 | 297 | 4.8 | 9.7 | 0.00 | 0.00 | 0.00 | 95 | 1014.2 |
| 20260505092507 | 13 | 171 | 3.2 | 8.0 | 0.00 | 0.00 | 0.00 | 95 | 1014.2 |
| 20260505092007 | 13 | 180 | 0.0 | 1.6 | 0.00 | 0.00 | 0.00 | 95 | 1014.2 |
| 20260505091507 | 13 | 180 | 1.6 | 4.8 | 0.00 | 0.00 | 0.00 | 95 | 1014.2 |
| 20260505091006 | 13 | 0 | 1.6 | 4.8 | 0.00 | 0.00 | 0.00 | 95 | 1014.2 |
| 20260505090507 | 13 | 144 | 1.6 | 3.2 | 0.00 | 0.00 | 0.00 | 95 | 1014.2 |
| 20260505090007 | 13 | 144 | 9.7 | 9.7 | 0.00 | 0.00 | 0.00 | 95 | 1013.9 |
| 20260505085506 | 13 | 135 | 0.0 | 1.6 | 0.00 | 0.00 | 0.00 | 95 | 1013.9 |
| 20260505085007 | 13 | 162 | 8.0 | 9.7 | 0.00 | 0.00 | 0.00 | 95 | 1014.2 |
| 20260505084507 | 13 | 153 | 6.4 | 9.7 | 0.00 | 0.00 | 0.00 | 95 | 1014.2 |
| 20260505084007 | 13 | 225 | 1.6 | 4.8 | 0.00 | 0.00 | 0.00 | 95 | 1013.9 |
| 20260505083507 | 13 | 180 | 3.2 | 8.0 | 0.00 | 0.00 | 0.00 | 96 | 1014.2 |
| 20260505083007 | 13 | 0 | 0.0 | 0.0 | 0.00 | 0.00 | 0.00 | 96 | 1013.9 |
| 20260505082507 | 13 | 0 | 0.0 | 0.0 | 0.00 | 0.00 | 0.00 | 96 | 1013.9 |
| 20260505082007 | 13 | 0 | 0.0 | 0.0 | 0.00 | 0.00 | 0.00 | 95 | 1013.9 |
| 20260505081507 | 13 | 0 | 0.0 | 0.0 | 0.00 | 0.00 | 0.00 | 95 | 1013.9 |
| 20260505081007 | 13 | 0 | 0.0 | 0.0 | 0.00 | 0.00 | 0.00 | 95 | 1013.9 |
| 20260505080508 | 14 | 0 | 0.0 | 0.0 | 0.00 | 0.00 | 0.00 | 95 | 1013.9 |
| 20260505080006 | 14 | 0 | 0.0 | 0.0 | 0.00 | 0.00 | 0.00 | 95 | 1013.9 |
| 20260505075507 | 14 | 0 | 0.0 | 0.0 | 0.00 | 0.00 | 0.00 | 95 | 1013.9 |
| 20260505075007 | 14 | 0 | 0.0 | 1.6 | 0.00 | 0.00 | 0.00 | 95 | 1013.9 |
| 20260505074507 | 14 | 0 | 0.0 | 1.6 | 0.00 | 0.00 | 0.00 | 95 | 1013.7 |
| 20260505074007 | 14 | 0 | 1.6 | 6.4 | 0.00 | 0.00 | 0.00 | 95 | 1013.6 |
| 20260505073507 | 14 | 0 | 1.6 | 4.8 | 0.00 | 0.00 | 0.00 | 94 | 1013.6 |
| 20260505073007 | 14 | 54 | 3.2 | 9.7 | 0.00 | 0.00 | 0.00 | 94 | 1013.6 |
| 20260505072507 | 14 | 180 | 9.7 | 12.9 | 0.00 | 0.00 | 0.00 | 94 | 1013.4 |
| 20260505072007 | 14 | 144 | 6.4 | 11.3 | 0.00 | 0.00 | 0.00 | 94 | 1013.2 |
| 20260505071507 | 15 | 180 | 3.2 | 6.4 | 0.00 | 0.00 | 0.00 | 95 | 1013.2 |
| 20260505071007 | 15 | 171 | 4.8 | 8.0 | 0.00 | 0.00 | 0.00 | 95 | 1013.2 |
| 20260505070507 | 15 | 72 | 4.8 | 8.0 | 0.00 | 0.00 | 0.00 | 95 | 1013.2 |
| 20260505070007 | 15 | 153 | 3.2 | 8.0 | 0.00 | 0.00 | 0.00 | 95 | 1013.2 |
| 20260505065507 | 14 | 225 | 0.0 | 3.2 | 0.00 | 0.00 | 0.00 | 96 | 1013.2 |
| 20260505065007 | 14 | 225 | 1.6 | 4.8 | 0.00 | 0.00 | 0.00 | 96 | 1012.9 |
| 20260505064507 | 14 | 225 | 1.6 | 6.4 | 0.00 | 0.00 | 0.00 | 95 | 1012.9 |
| 20260505064007 | 14 | 315 | 0.0 | 1.6 | 0.00 | 0.00 | 0.00 | 95 | 1012.9 |
| 20260505063507 | 15 | 315 | 0.0 | 0.0 | 0.00 | 0.00 | 0.00 | 95 | 1012.9 |
| 20260505063008 | 15 | 315 | 0.0 | 0.0 | 0.00 | 0.00 | 0.00 | 95 | 1012.7 |
| 20260505062507 | 15 | 315 | 0.0 | 0.0 | 0.00 | 0.00 | 0.00 | 94 | 1012.5 |
| 20260505062007 | 15 | 315 | 0.0 | 0.0 | 0.00 | 0.00 | 0.00 | 94 | 1012.5 |
| 20260505061507 | 15 | 315 | 0.0 | 0.0 | 0.00 | 0.00 | 0.00 | 94 | 1012.5 |
| 20260505061007 | 15 | 315 | 0.0 | 0.0 | 0.00 | 0.00 | 0.00 | 94 | 1012.5 |
| 20260505060507 | 15 | 315 | 1.6 | 6.4 | 0.00 | 0.00 | 0.00 | 94 | 1012.2 |
| 20260505060007 | 16 | 315 | 0.0 | 0.0 | 0.00 | 0.00 | 0.00 | 93 | 1012.2 |
| 20260505055507 | 16 | 315 | 0.0 | 1.6 | 0.00 | 0.00 | 0.00 | 93 | 1012.2 |
| 20260505055007 | 16 | 189 | 3.2 | 6.4 | 0.00 | 0.00 | 0.00 | 93 | 1012.2 |
| 20260505054507 | 16 | 288 | 1.6 | 4.8 | 0.00 | 0.00 | 0.00 | 93 | 1012.2 |
| 20260505054006 | 16 | 288 | 1.6 | 4.8 | 0.00 | 0.00 | 0.00 | 93 | 1012.2 |
| 20260505053507 | 16 | 315 | 1.6 | 6.4 | 0.00 | 0.00 | 0.00 | 92 | 1012.2 |
| 20260505053008 | 16 | 315 | 1.6 | 4.8 | 0.00 | 0.00 | 0.00 | 92 | 1012.2 |
| 20260505052507 | 17 | 279 | 3.2 | 8.0 | 0.00 | 0.00 | 0.00 | 92 | 1012.2 |
| 20260505052006 | 17 | 289 | 1.6 | 4.8 | 0.00 | 0.00 | 0.00 | 92 | 1012.2 |
| 20260505051507 | 17 | 182 | 6.4 | 11.3 | 0.00 | 0.00 | 0.00 | 92 | 1011.9 |
| 20260505051007 | 17 | 243 | 4.8 | 8.0 | 0.00 | 0.00 | 0.00 | 92 | 1011.9 |
| 20260505050507 | 17 | 315 | 1.6 | 6.4 | 0.00 | 0.00 | 0.00 | 91 | 1011.9 |
| 20260505041507 | 19 | 171 | 6.4 | 8.0 | 0.00 | 0.00 | 0.00 | 88 | 1011.2 |
| 20260505041007 | 19 | 135 | 6.4 | 8.0 | 0.00 | 0.00 | 0.00 | 87 | 1011.2 |
| 20260505040507 | 20 | 236 | 3.2 | 8.0 | 0.00 | 0.00 | 0.00 | 90 | 1010.8 |
| 20260505040007 | 20 | 169 | 6.4 | 8.0 | 0.00 | 0.00 | 0.00 | 90 | 1010.8 |
| 20260505035506 | 20 | 169 | 8.0 | 9.7 | 0.00 | 0.00 | 0.00 | 90 | 1010.8 |
| 20260505035007 | 20 | 158 | 3.2 | 8.0 | 0.00 | 0.00 | 0.00 | 91 | 1010.8 |
| 20260505034507 | 20 | 180 | 9.7 | 14.5 | 0.00 | 0.00 | 0.00 | 90 | 1010.5 |
| 20260505034008 | 20 | 189 | 9.7 | 11.3 | 0.00 | 0.00 | 0.00 | 90 | 1010.5 |
| 20260505033507 | 20 | 126 | 8.0 | 8.0 | 0.00 | 0.00 | 0.00 | 90 | 1010.3 |
| 20260505033007 | 20 | 144 | 8.0 | 12.9 | 0.00 | 0.00 | 0.00 | 90 | 1010.2 |
| 20260505032508 | 20 | 171 | 9.7 | 11.3 | 0.00 | 0.00 | 0.00 | 89 | 1010.2 |
| 20260505032007 | 20 | 144 | 4.8 | 9.7 | 0.00 | 0.00 | 0.00 | 88 | 1010.2 |
| 20260505031506 | 21 | 126 | 3.2 | 9.7 | 0.00 | 0.00 | 0.00 | 88 | 1010.1 |
| 20260505031008 | 21 | 135 | 4.8 | 8.0 | 0.00 | 0.00 | 0.00 | 87 | 1009.8 |
| 20260505030507 | 21 | 158 | 4.8 | 6.4 | 0.00 | 0.00 | 0.00 | 85 | 1009.8 |
| 20260505030007 | 21 | 144 | 9.7 | 16.1 | 0.00 | 0.00 | 0.00 | 84 | 1009.8 |
| 20260505025507 | 21 | 117 | 11.3 | 12.9 | 0.00 | 0.00 | 0.00 | 82 | 1009.8 |
| 20260505025007 | 21 | 90 | 11.3 | 12.9 | 0.00 | 0.00 | 0.00 | 82 | 1009.8 |
| 20260505024506 | 21 | 135 | 8.0 | 8.0 | 0.00 | 0.00 | 0.00 | 81 | 1009.8 |
| 20260505021506 | 22 | 135 | 9.7 | 11.3 | 0.00 | 0.00 | 0.00 | 75 | 1009.8 |
| 20260505021007 | 22 | 180 | 11.3 | 16.1 | 0.00 | 0.00 | 0.00 | 73 | 1009.8 |
| 20260505020507 | 22 | 126 | 12.9 | 14.5 | 0.00 | 0.00 | 0.00 | 73 | 1009.8 |
| 20260505020007 | 22 | 171 | 8.0 | 14.5 | 0.00 | 0.00 | 0.00 | 74 | 1009.8 |
| 20260505015507 | 22 | 171 | 9.7 | 11.3 | 0.00 | 0.00 | 0.00 | 73 | 1009.8 |
| 20260505015007 | 22 | 144 | 9.7 | 11.3 | 0.00 | 0.00 | 0.00 | 72 | 1009.8 |
| 20260505014507 | 22 | 162 | 12.9 | 12.9 | 0.00 | 0.00 | 0.00 | 71 | 1009.8 |
| 20260505014007 | 22 | 171 | 9.7 | 12.9 | 0.00 | 0.00 | 0.00 | 70 | 1009.8 |
| 20260505013507 | 22 | 169 | 11.3 | 12.9 | 0.00 | 0.00 | 0.00 | 69 | 1009.8 |
| 20260505013007 | 23 | 191 | 9.7 | 11.3 | 0.00 | 0.00 | 0.00 | 69 | 1009.8 |
| 20260505012507 | 23 | 180 | 11.3 | 11.3 | 0.00 | 0.00 | 0.00 | 68 | 1009.8 |
| 20260505012007 | 23 | 117 | 8.0 | 16.1 | 0.00 | 0.00 | 0.00 | 67 | 1009.8 |
| 20260505011507 | 23 | 135 | 12.9 | 16.1 | 0.00 | 0.00 | 0.00 | 65 | 1010.0 |
| 20260505011006 | 24 | 126 | 12.9 | 14.5 | 0.00 | 0.00 | 0.00 | 63 | 1009.8 |
| 20260505010507 | 24 | 101 | 9.7 | 11.3 | 0.00 | 0.00 | 0.00 | 61 | 1009.8 |
| 20260505010007 | 25 | 162 | 11.3 | 12.9 | 0.00 | 0.00 | 0.00 | 59 | 1009.8 |
| 20260505005507 | 25 | 81 | 8.0 | 9.7 | 0.00 | 0.00 | 0.00 | 59 | 1009.8 |
| 20260505005007 | 25 | 135 | 9.7 | 11.3 | 0.00 | 0.00 | 0.00 | 58 | 1010.1 |
| 20260505004508 | 25 | 191 | 11.3 | 12.9 | 0.00 | 0.00 | 0.00 | 58 | 1010.2 |
| 20260505004007 | 26 | 117 | 11.3 | 17.7 | 0.00 | 0.00 | 0.00 | 55 | 1010.2 |
| 20260505003507 | 26 | 153 | 9.7 | 12.9 | 0.00 | 0.00 | 0.00 | 56 | 1010.2 |
| 20260505003007 | 26 | 126 | 9.7 | 14.5 | 0.00 | 0.00 | 0.00 | 55 | 1010.2 |
| 20260505002507 | 26 | 81 | 8.0 | 9.7 | 0.00 | 0.00 | 0.00 | 55 | 1010.2 |
| 20260505002006 | 26 | 117 | 11.3 | 14.5 | 0.00 | 0.00 | 0.00 | 54 | 1010.2 |
| 20260505001507 | 26 | 171 | 8.0 | 9.7 | 0.00 | 0.00 | 0.00 | 55 | 1010.2 |
| 20260505001007 | 26 | 117 | 11.3 | 12.9 | 0.00 | 0.00 | 0.00 | 54 | 1010.2 |
| 20260505000507 | 26 | 117 | 9.7 | 11.3 | 0.00 | 0.00 | 0.00 | 54 | 1010.2 |
| 20260505000007 | 26 | 145 | 8.0 | 11.3 | 0.00 | 0.00 | 0.00 | 54 | 1010.2 |
| 20260504235507 | 26 | 101 | 9.7 | 17.7 | 0.00 | 0.00 | 0.00 | 55 | 1010.2 |
| 20260504235007 | 26 | 144 | 8.0 | 11.3 | 0.00 | 0.00 | 0.00 | 55 | 1010.2 |
| 20260504234506 | 25 | 144 | 6.4 | 9.7 | 0.00 | 0.00 | 0.00 | 55 | 1010.2 |
| 20260504234008 | 25 | 162 | 11.3 | 14.5 | 0.00 | 0.00 | 0.00 | 55 | 1010.2 |
| 20260504233507 | 25 | 144 | 8.0 | 12.9 | 0.00 | 0.00 | 0.00 | 56 | 1010.2 |
| 20260504233007 | 25 | 117 | 9.7 | 12.9 | 0.00 | 0.00 | 0.00 | 56 | 1010.5 |
| 20260504232507 | 25 | 180 | 11.3 | 11.3 | 0.00 | 0.00 | 0.00 | 55 | 1010.5 |
| 20260504232006 | 25 | 153 | 12.9 | 16.1 | 0.00 | 0.00 | 0.00 | 54 | 1010.5 |
| 20260504231507 | 25 | 153 | 9.7 | 9.7 | 0.00 | 0.00 | 0.00 | 54 | 1010.5 |
| 20260504231008 | 26 | 72 | 11.3 | 11.3 | 0.00 | 0.00 | 0.00 | 53 | 1010.5 |
| 20260504230506 | 26 | 144 | 9.7 | 12.9 | 0.00 | 0.00 | 0.00 | 53 | 1010.5 |
| 20260504230007 | 26 | 153 | 9.7 | 12.9 | 0.00 | 0.00 | 0.00 | 53 | 1010.5 |
| 20260504225507 | 26 | 108 | 9.7 | 11.3 | 0.00 | 0.00 | 0.00 | 53 | 1010.8 |
| 20260504225007 | 26 | 162 | 8.0 | 11.3 | 0.00 | 0.00 | 0.00 | 54 | 1010.8 |
| 20260504224507 | 25 | 135 | 8.0 | 11.3 | 0.00 | 0.00 | 0.00 | 54 | 1010.8 |
| 20260504224007 | 25 | 135 | 8.0 | 9.7 | 0.00 | 0.00 | 0.00 | 55 | 1010.8 |
| 20260504223507 | 25 | 189 | 12.9 | 16.1 | 0.00 | 0.00 | 0.00 | 54 | 1010.8 |
| 20260504223007 | 25 | 171 | 9.7 | 12.9 | 0.00 | 0.00 | 0.00 | 53 | 1011.1 |
| 20260504222507 | 25 | 108 | 8.0 | 11.3 | 0.00 | 0.00 | 0.00 | 54 | 1011.2 |
| 20260504222007 | 25 | 198 | 11.3 | 12.9 | 0.00 | 0.00 | 0.00 | 56 | 1011.2 |
| 20260504221506 | 25 | 113 | 8.0 | 12.9 | 0.00 | 0.00 | 0.00 | 54 | 1011.2 |
| 20260504221007 | 25 | 126 | 9.7 | 12.9 | 0.00 | 0.00 | 0.00 | 55 | 1011.2 |
| 20260504220507 | 25 | 144 | 4.8 | 8.0 | 0.00 | 0.00 | 0.00 | 56 | 1011.5 |
| 20260504220007 | 24 | 198 | 9.7 | 12.9 | 0.00 | 0.00 | 0.00 | 57 | 1011.5 |
| 20260504215507 | 23 | 135 | 8.0 | 9.7 | 0.00 | 0.00 | 0.00 | 57 | 1011.5 |
| 20260504215007 | 23 | 189 | 11.3 | 17.7 | 0.00 | 0.00 | 0.00 | 56 | 1011.5 |
| 20260504214506 | 23 | 72 | 11.3 | 17.7 | 0.00 | 0.00 | 0.00 | 58 | 1011.5 |
| 20260504214008 | 23 | 171 | 12.9 | 14.5 | 0.00 | 0.00 | 0.00 | 57 | 1011.6 |
| 20260504213507 | 23 | 162 | 8.0 | 9.7 | 0.00 | 0.00 | 0.00 | 57 | 1011.9 |
| 20260504213007 | 23 | 198 | 9.7 | 12.9 | 0.00 | 0.00 | 0.00 | 60 | 1011.9 |
| 20260504212507 | 23 | 126 | 11.3 | 14.5 | 0.00 | 0.00 | 0.00 | 59 | 1011.9 |
| 20260504212007 | 23 | 169 | 11.3 | 12.9 | 0.00 | 0.00 | 0.00 | 59 | 1011.9 |
| 20260504211507 | 23 | 207 | 8.0 | 12.9 | 0.00 | 0.00 | 0.00 | 60 | 1011.9 |
| 20260504211008 | 22 | 198 | 9.7 | 11.3 | 0.00 | 0.00 | 0.00 | 62 | 1012.1 |
| 20260504210506 | 22 | 162 | 8.0 | 9.7 | 0.00 | 0.00 | 0.00 | 66 | 1012.2 |
| 20260504210007 | 21 | 108 | 6.4 | 11.3 | 0.00 | 0.00 | 0.00 | 66 | 1012.3 |
| 20260504205507 | 21 | 135 | 11.3 | 12.9 | 0.00 | 0.00 | 0.00 | 67 | 1012.5 |
| 20260504205007 | 21 | 162 | 12.9 | 14.5 | 0.00 | 0.00 | 0.00 | 67 | 1012.5 |
| 20260504204507 | 21 | 153 | 12.9 | 14.5 | 0.00 | 0.00 | 0.00 | 66 | 1012.5 |
| 20260504204006 | 21 | 108 | 12.9 | 16.1 | 0.00 | 0.00 | 0.00 | 67 | 1012.6 |
| 20260504203507 | 21 | 207 | 11.3 | 16.1 | 0.00 | 0.00 | 0.00 | 67 | 1012.7 |
| 20260504203007 | 21 | 144 | 9.7 | 12.9 | 0.00 | 0.00 | 0.00 | 70 | 1012.9 |
| 20260504202507 | 21 | 108 | 11.3 | 12.9 | 0.00 | 0.00 | 0.00 | 68 | 1012.9 |
| 20260504202007 | 21 | 162 | 9.7 | 12.9 | 0.00 | 0.00 | 0.00 | 70 | 1012.9 |
| 20260504201507 | 21 | 180 | 11.3 | 12.9 | 0.00 | 0.00 | 0.00 | 70 | 1012.9 |
| 20260504201007 | 21 | 162 | 9.7 | 11.3 | 0.00 | 0.00 | 0.00 | 69 | 1012.9 |
| 20260504200507 | 21 | 144 | 11.3 | 12.9 | 0.00 | 0.00 | 0.00 | 71 | 1012.9 |
| 20260504200007 | 20 | 190 | 9.7 | 14.5 | 0.00 | 0.00 | 0.00 | 73 | 1013.1 |
| 20260504195507 | 20 | 153 | 9.7 | 11.3 | 0.00 | 0.00 | 0.00 | 77 | 1013.2 |
| 20260504195007 | 19 | 144 | 8.0 | 12.9 | 0.00 | 0.00 | 0.00 | 77 | 1013.2 |
| 20260504194507 | 18 | 135 | 9.7 | 11.3 | 0.00 | 0.00 | 0.00 | 83 | 1013.2 |
| 20260504194007 | 18 | 108 | 11.3 | 17.7 | 0.00 | 0.00 | 0.00 | 81 | 1013.2 |
| 20260504193507 | 18 | 153 | 9.7 | 16.1 | 0.00 | 0.00 | 0.00 | 82 | 1013.2 |
| 20260504193006 | 18 | 108 | 11.3 | 12.9 | 0.00 | 0.00 | 0.00 | 85 | 1013.2 |
| 20260504192507 | 18 | 198 | 12.9 | 14.5 | 0.00 | 0.00 | 0.00 | 84 | 1013.2 |
| 20260504192007 | 18 | 117 | 11.3 | 14.5 | 0.00 | 0.00 | 0.00 | 85 | 1013.2 |
| 20260504191507 | 18 | 144 | 8.0 | 9.7 | 0.00 | 0.00 | 0.00 | 87 | 1013.5 |
| 20260504191007 | 17 | 153 | 8.0 | 12.9 | 0.00 | 0.00 | 0.00 | 89 | 1013.6 |
| 20260504190506 | 17 | 226 | 9.7 | 12.9 | 0.00 | 0.00 | 0.00 | 90 | 1013.6 |
| 20260504190007 | 17 | 249 | 12.9 | 14.5 | 0.00 | 0.00 | 0.00 | 90 | 1013.6 |
| 20260504185507 | 17 | 117 | 11.3 | 12.9 | 0.00 | 0.00 | 0.00 | 91 | 1013.6 |
| 20260504185007 | 17 | 144 | 9.7 | 12.9 | 0.00 | 0.00 | 0.00 | 92 | 1013.6 |
| 20260504184507 | 16 | 108 | 6.4 | 11.3 | 0.00 | 0.00 | 0.00 | 92 | 1013.6 |
| 20260504184007 | 16 | 189 | 9.7 | 12.9 | 0.00 | 0.00 | 0.00 | 92 | 1013.6 |
| 20260504183508 | 16 | 162 | 11.3 | 12.9 | 0.00 | 0.00 | 0.00 | 92 | 1013.6 |
| 20260504183006 | 16 | 153 | 11.3 | 14.5 | 0.00 | 0.00 | 0.00 | 92 | 1013.6 |
| 20260504182507 | 16 | 171 | 9.7 | 12.9 | 0.00 | 0.00 | 0.00 | 93 | 1013.6 |